Location: Makanda
(37.6176°N, 89.2090°W)
Time: 05:56:27
(UTC+00:00)

CZ-2D R/B - Pass Details

Date: 23 September 2019
Orbit: 523 x 537 km, 97.4° (Epoch: 22 October)

Event Time Altitude Azimuth Distance (km) Brightness Sun altitude
Rises 00:26:13 0° 152° (SSE) 2,639 6.5 -7.2°
Reaches altitude 10° 00:28:22 10° 145° (SE) 1,755 5.5 -7.6°
Maximum altitude 00:31:57 42° 74° (ENE) 761 3.6 -8.3°
Drops below altitude 10° 00:35:33 10° 3° (N) 1,769 6.0 -9.0°
Sets 00:37:44 0° 356° (N) 2,663 7.0 -9.5°
